Location: Novokuznetsk
(53.7500°N, 87.1000°E)
Time: 23:02:07
(UTC+06:00)

ISS - Pass Details

Date: 25 May 2021
Orbit: 417 x 422 km, 51.6° (Epoch: 16 June)

Event Time Altitude Azimuth Distance (km) Brightness Sun altitude
Rises 21:33:30 0° 276° (W) 2,367 0.7 -8.1°
Reaches altitude 10° 21:35:39 10° 269° (W) 1,503 -0.4 -8.2°
Maximum altitude 21:38:52 43° 197° (SSW) 603 -3.2 -8.5°
Enters shadow 21:41:54 11° 126° (SE) 1,432 -1.6 -8.8°
